Regional Weather Roundup
Issued by NWS State College, PA

Home | Current Version | Previous Version | Text Only | Print | Product List | Glossary On
Versions: 1 2 3 4 5 6 7 8 9 10 11 12 13 14 15 16 17 18 19 20 21 22 23 24 25 26 27 28 29 30 31 32 33 34 35 36 37 38 39 40 41 42 43 44 45 46 47 48 49 50
000
ASUS41 KCTP 280010
RWRCTP

REGIONAL WEATHER ROUNDUP
NATIONAL WEATHER SERVICE STATE COLLEGE PA
800 PM EDT WED AUG 27 2014

Note: "fair" indicates few or no clouds below 12,000 feet with no
significant weather and/or obstructions to visibility.

* = STATION THAT DOES NOT REPORT PRECIPITATION /E.G. RAIN...SNOW...ETC/
    THUNDER OR FOG.

PAZ002>004-007>009-013>016-020>023-029>032-280100-
WESTERN PENNSYLVANIA

CITY           SKY/WX    TMP DP  RH WIND       PRES   REMARKS
ERIE           CLEAR     73  59  61 NW8       30.04F
MEADVILLE      PTCLDY    66  58  75 VRB6      30.07R
FRANKLIN*      PTCLDY    66  59  77 NW5       30.07R
NEW CASTLE     MOCLDY    72  64  75 N7        30.06R
BEAVER COUNTY  CLEAR     72  64  78 N7        30.05R
BUTLER*        CLOUDY    73  64  73 CALM      30.05R
PITTSBURGH INT MOCLDY    76  67  73 N13       30.02R
PITTSBURGH     PTCLDY    78  67  68 NW6       30.01R
INDIANA*       MOCLDY    77  70  78 SW7       30.05R
LATROBE        MOCLDY    70  70 100 CALM      30.02S
WASHINGTON CO* PTCLDY    75  70  83 W3        30.02S
$$

PAZ004>006-010>012-017>019-024>028-033>037-041-042-045-046-049>053-280100-
CENTRAL PENNSYLVANIA

CITY           SKY/WX    TMP DP  RH WIND       PRES   REMARKS
BRADFORD       PTCLDY    66  59  78 N9        30.06S
DUBOIS         PTCLDY    71  63  75 NW6       30.03R
CLEARFIELD     PTCLDY    75  66  73 NW12      30.01R
JOHNSTOWN      MOCLDY    70  68  93 W8        30.05S FOG
ALTOONA        TSTM      70  66  87 VRB3      30.00R FOG
STATE COLLEGE  CLEAR     79  68  69 CALM      29.96S
WILLIAMSPORT   CLOUDY    78  67  68 E5        29.90R
SELINSGROVE    PTCLDY    74  70  87 CALM      29.91S
FT INDIANTOWN  PTCLDY    79  77  93 N2        29.91S
CAPITAL CITY   CLEAR     81  71  71 SW6       29.90F
HARRISBURG     PTCLDY    82  72  71 SW6       29.90S
YORK           CLEAR     77  70  79 W3        29.92S
$$

PAZ038>040-043-044-047-048-054-055-060>062-067>071-280100-
EASTERN PENNSYLVANIA

CITY           SKY/WX    TMP DP  RH WIND       PRES   REMARKS
SCRANTON       PTCLDY    75  71  87 CALM      29.92F FOG
MOUNT POCONO   LGT RAIN  72  68  87 NW5       29.98R
ALLENTOWN      CLEAR     82  68  62 SW7       29.89S
QUAKERTOWN*    CLEAR     81  70  69 CALM      29.92R
READING        PTCLDY    84  68  58 W5        29.89S
LANCASTER      CLEAR     80  68  66 W5        29.91R
COATESVILLE    CLEAR     79  68  69 SW3       29.94R
POTTSTOWN      CLEAR     81  68  64 SW3       29.91S
BLUE BELL      CLEAR     79  70  73 CALM      29.89R
DOYLESTOWN     CLEAR     82  67  60 W3        29.90R
WILLOW GROVE   NOT AVBL
NORTH PHILA    CLEAR     84  64  50 SW7       29.89F
PHILADELPHIA   PTCLDY    84  66  54 SW9       29.89F
$$


USA.gov is the U.S. government's official web portal to all federal, state and local government web resources and services.